Regional Weather Roundup
Issued by NWS

Home | Current Version | Previous Version | Text Only | Print | Product List | Glossary Off
Versions: 1 2 3 4 5 6 7 8 9 10 11 12 13 14 15 16 17 18 19 20 21 22 23 24 25 26 27 28 29 30 31 32 33 34 35 36 37 38 39 40 41 42 43 44 45 46 47 48 49 50

000
ASUS43 KMKX 171121
RWRWI

WISCONSIN REGIONAL WEATHER ROUNDUP
NATIONAL WEATHER SERVICE MILWAUKEE/SULLIVAN WI
600 AM CDT THU APR 17 2014

NOTE: "FAIR" INDICATES FEW OR NO CLOUDS BELOW 12,000 FEET WITH NO
SIGNIFICANT WEATHER AND/OR OBSTRUCTIONS TO VISIBILITY.

WIZ001-002-006>008-014>016-023>028-171200-
NORTHWEST WISCONSIN

CITY           SKY/WX    TMP DP  RH WIND       PRES   REMARKS
SUPERIOR ARPT  CLOUDY    30  29  94 NE12G21   30.14R WCI  21
ASHLAND        LGT SNOW  28  28 100 NE13      30.10S FOG     WCI  17
HAYWARD        CLOUDY    29  26  89 VRB5      30.05R WCI  24
SIREN          CLOUDY    30  28  95 NE8       30.08R FOG     WCI  22
RICE LAKE      MIX PCPN  32  31  96 N7        30.04R WCI  26
LADYSMITH      LGT SNOW  33  33  98 E3        30.02R
EAU CLAIRE     CLOUDY    37  35  92 NE6       29.99R WCI  32
MENOMONIE      CLOUDY    35  35  99 NW10      30.00R FOG     WCI  27
NEW RICHMOND   CLOUDY    30  30  99 N12       30.06R WCI  20
OSCEOLA        CLOUDY    30  29  97 N8        30.11R WCI  23
$$

WIZ003>005-009-010-017-018-171200-
NORTH CENTRAL WISCONSIN

CITY           SKY/WX    TMP DP  RH WIND       PRES   REMARKS
WOODRUFF         N/A     32  30  92 SE9       30.02S WCI  24
RHINELANDER    SNOW      30  30 100 E13       30.03F VSB 1/2 WCI  20
EAGLE RIVER    SNOW      30  30 100 SE13      30.03F VSB 1/2 WCI  20
LAND O LAKES   SNOW      31  30  97 SE12      30.05F VSB 1/2 WCI  21
PHILLIPS       LGT SNOW  32  30  95 SE7       30.00S WCI  25
TOMAHAWK       LGT SNOW  32  31  94 CALM      30.02S VSB 3/4
MEDFORD        LGT SNOW  32  32  99 E7        29.99R VSB 1   WCI  26
MERRILL        SNOW      33  32  99 CALM      30.02S VSB 1/2
$$

WIZ029-030-035-036-043>047-171200-
CENTRAL WISCONSIN

CITY           SKY/WX    TMP DP  RH WIND       PRES   REMARKS
WAUSAU         LGT SNOW  33  32  96 E9        29.99S FOG     WCI  25
MOSINEE        LGT SNOW  34  32  93 E12       30.00S WCI  25
MARSHFIELD     MIX PCPN  35  32  88 NE8       29.97R WCI  29
STEVENS POINT  LGT RAIN  34  30  85 E9        29.99S WCI  27
WAUPACA        LGT RAIN  39  30  70 E15       30.02S WCI  31
WAUTOMA        CLOUDY    42  29  60 SE10      29.99F
WISC RAPIDS    LGT RAIN  40  29  64 E10       29.96F WCI  33
CAMP DOUGLAS   CLOUDY    43  31  62 SE6       29.93R
$$

WIZ011>013-019>022-031-037>040-048>050-171200-
NORTHEAST WISCONSIN

CITY           SKY/WX    TMP DP  RH WIND       PRES   REMARKS
ANTIGO         CLOUDY    32  31  98 SE15      30.04R FOG     WCI  21
STURGEON BAY   CLOUDY    34  28  80 SE14G24   30.15F VSB 1   WCI  24
GREEN BAY      CLOUDY    35  32  88 SE16      30.07F WCI  25
MANITOWOC      CLOUDY    37  30  75 SE20G25   30.11F WCI  27
APPLETON       CLOUDY    36  30  80 SE17G24   30.04F WCI  25
CLINTONVILLE   CLOUDY    34  32  93 SE12G18   30.05S WCI  25
OSHKOSH        CLOUDY    39  28  64 SE13      30.03S WCI  31
$$

WIZ032>034-041-042-053>061-171200-
SOUTHWEST WISCONSIN

CITY           SKY/WX    TMP DP  RH WIND       PRES   REMARKS
LA CROSSE      CLOUDY    44  37  76 SW7       29.95R
SPARTA         CLOUDY    45  31  57 SW3       29.94R
VIROQUA        CLOUDY    38  38 100 W20       29.94R WCI  27
BOSCOBEL       CLOUDY    43  36  76 SW17G26   29.99R
PRAIRIE DU CHI CLOUDY    38  33  82 SW15      30.01R WCI  29
PLATTEVILLE    CLOUDY    41  37  83 SW21      30.02R
$$

WIZ056-057-062-063-064-067-068-171200-
SOUTH CENTRAL WISCONSIN

CITY           SKY/WX    TMP DP  RH WIND       PRES   REMARKS
BARABOO/DELLS  CLOUDY    42  29  61 S12G21    29.96R
LONE ROCK      CLOUDY    45  31  58 SW12      29.96R
WATERTOWN      CLOUDY    42  28  57 SE13      30.02F
MADISON        MOCLDY    43  29  57 S18       29.99F
MIDDLETON      PTSUNNY   43  29  58 S8        30.00R
MONROE         MOCLDY    41  31  66 S21G28    29.98S
JANESVILLE     MOCLDY    45  28  53 S15G21    30.03R
$$

WIZ051-052-058>065-066-070>072-171200-
SOUTHEAST WISCONSIN

CITY           SKY/WX    TMP DP  RH WIND       PRES   REMARKS
MILWAUKEE      CLOUDY    40  29  64 SE16G25   30.09F WCI  31
WAUKESHA       CLOUDY    37  28  70 SE12      30.07F WCI  30
MILWAUKEE/TIMM CLOUDY    37  28  70 SE9       30.08F WCI  31
RACINE         CLOUDY    39  30  70 S17G26    30.11F WCI  30
BURLINGTON     CLOUDY    42  27  56 S10       30.07S
KENOSHA        CLOUDY    40  31  70 SE12      30.09S WCI  33
FOND DU LAC    CLOUDY    38  29  70 SE18G29   30.03F WCI  28
SHEBOYGAN      CLOUDY    37  28  70 SE17G29   30.09F WCI  27
WEST BEND      CLOUDY    36  28  75 SE12G21   30.06F WCI  27
JUNEAU         CLOUDY    40  25  54 SE16      30.03S WCI  32
$$

LSZ147-162-171200-
LAKE SUPERIOR

STATION/POSITION TIME  TEMP    WIND        PRES    WAVE
                       AIR SEA DIR/SP/G            HT/PER
                 (UTC) (F)     (DEG/KT/KT) (MB)    (FT/S)
DEVILS ISLAND    1100   31      60/ 29/ 35 1021.0F
PORT WING        1040   29      60/ 11/ 16 1019.6S
SAXON HARBOR     1000           50/ 13/ 15 1019.0R
$$

LMZ867-665-643>646-171200-
LAKE MICHIGAN

STATION/POSITION TIME  TEMP    WIND        PRES    WAVE
                       AIR SEA DIR/SP/G            HT/PER
                 (UTC) (F)     (DEG/KT/KT) (MB)    (FT/S)
NORTHPORT PIER   1000   35     120/ 12/ 17 1022.4F
SISTER BAY       1023   36     140/ 16/ 22   N/A
SHEBOYGAN LAKESH 1100   38     140/ 27/ 31 1019.5F
PORT WASHINGTON  1040   38     150/ 15/ 21 1020.0F
MILWAUKEE LAKESH 1100   39     150/ 17/ 20   N/A
KENOSHA   LAKESH 1100   39     160/ 21/ 25   N/A
$$

TC  - TEMPERATURE IN CELSIUS
VSB - VISIBILITY IN STATUTE MILES
WCI - WIND CHILL INDEX
HX  - HEAT INDEX




USA.gov is the U.S. government's official web portal to all federal, state and local government web resources and services.